When you browse on this site, cookies collect data to enhance your experience and personalize the content and advertising you see.
Visit our Privacy Policy to learn more. By continuing to use the site, you agree to this use of cookies and data.
  • In France
  • List of Countries
  • For 7 days
  • Water Temperature
  • Satellite Maps
  • Weather Map
  • Weather Widgets
  • user-avatar
    Login

    Hourly Weather Brisbane

    Today, 23 January, Wednesday

    Time Temperature Precipitation Wind Pressure Humidity
    00:00 +25°C° 0 mm 2 mps 760 mmHg 86%
    01:00 +24°C° 0 mm 1 mps 759 mmHg 88%
    02:00 +24°C° 0 mm 1 mps 759 mmHg 89%
    03:00 +24°C° 0 mm 1 mps 759 mmHg 90%
    04:00 +24°C° 0 mm 1 mps 758 mmHg 91%
    05:00 +24°C° 0 mm 1 mps 758 mmHg 86%
    06:00 +25°C° 0 mm 1 mps 759 mmHg 82%
    07:00 +26°C° 0 mm 1 mps 759 mmHg 77%
    08:00 +29°C° 0 mm 2 mps 759 mmHg 66%
    09:00 +31°C° 0 mm 2 mps 759 mmHg 55%
    10:00 +35°C° 0 mm 2 mps 759 mmHg 47%
    11:00 +36°C° 0 mm 3 mps 758 mmHg 44%
    12:00 +37°C° 0 mm 3 mps 758 mmHg 41%
    13:00 +38°C° 0 mm 4 mps 757 mmHg 38%
    14:00 +37°C° 0 mm 4 mps 757 mmHg 42%
    15:00 +36°C° 0 mm 5 mps 756 mmHg 46%
    16:00 +34°C° 0 mm 5 mps 756 mmHg 52%
    17:00 +33°C° 0 mm 5 mps 756 mmHg 58%
    18:00 +30°C° 0 mm 4 mps 756 mmHg 64%
    19:00 +29°C° 0 mm 4 mps 756 mmHg 70%
    20:00 +28°C° 0.1 mm 4 mps 757 mmHg 74%
    21:00 +27°C° 0.1 mm 3 mps 757 mmHg 78%
    22:00 +26°C° 0 mm 2 mps 758 mmHg 81%
    23:00 +26°C° 0.2 mm 2 mps 757 mmHg 82%

    Tomorrow, 24 January, Thursday

    Time Temperature Precipitation Wind Pressure Humidity
    00:00 +26°C° 0.2 mm 2 mps 757 mmHg 83%
    01:00 +25°C° 0.2 mm 2 mps 757 mmHg 84%
    02:00 +25°C° 0.4 mm 2 mps 757 mmHg 85%
    03:00 +25°C° 0.4 mm 1 mps 757 mmHg 86%
    04:00 +24°C° 0.4 mm 1 mps 758 mmHg 87%
    05:00 +25°C° 0.1 mm 1 mps 758 mmHg 84%
    06:00 +26°C° 0.1 mm 1 mps 758 mmHg 80%
    07:00 +27°C° 0.1 mm 1 mps 759 mmHg 77%
    08:00 +29°C° 0 mm 1 mps 759 mmHg 67%
    09:00 +32°C° 0 mm 1 mps 759 mmHg 57%
    10:00 +35°C° 0 mm 1 mps 759 mmHg 47%
    11:00 +36°C° 0 mm 2 mps 758 mmHg 46%
    12:00 +36°C° 0 mm 3 mps 758 mmHg 46%
    13:00 +36°C° 0 mm 4 mps 758 mmHg 45%
    14:00 +35°C° 0 mm 4 mps 757 mmHg 47%
    15:00 +35°C° 0 mm 4 mps 757 mmHg 49%
    16:00 +34°C° 0 mm 4 mps 757 mmHg 51%
    17:00 +32°C° 0 mm 4 mps 757 mmHg 58%
    18:00 +30°C° 0 mm 3 mps 758 mmHg 64%
    19:00 +28°C° 0 mm 3 mps 758 mmHg 71%
    20:00 +28°C° 0 mm 3 mps 759 mmHg 73%
    21:00 +27°C° 0 mm 2 mps 759 mmHg 76%
    22:00 +27°C° 0 mm 2 mps 760 mmHg 78%
    23:00 +27°C° 0.1 mm 2 mps 760 mmHg 80%

    Day after tomorrow, 25 January, Friday

    Time Temperature Precipitation Wind Pressure Humidity
    00:00 +27°C° 0.1 mm 2 mps 760 mmHg 81%
    01:00 +26°C° 0.1 mm 2 mps 760 mmHg 83%
    02:00 +26°C° 0.3 mm 1 mps 759 mmHg 84%
    03:00 +26°C° 0.3 mm 1 mps 759 mmHg 86%
    04:00 +23°C° 0.3 mm 0 mps 759 mmHg 87%
    05:00 +24°C° 0 mm 0 mps 759 mmHg 84%
    06:00 +25°C° 0 mm 0 mps 759 mmHg 81%
    07:00 +26°C° 0 mm 0 mps 760 mmHg 77%
    08:00 +29°C° 0.1 mm 1 mps 760 mmHg 69%
    09:00 +31°C° 0.1 mm 2 mps 760 mmHg 62%
    10:00 +33°C° 0.1 mm 3 mps 759 mmHg 54%
    11:00 +34°C° 0 mm 3 mps 759 mmHg 52%
    12:00 +34°C° 0 mm 4 mps 759 mmHg 51%
    13:00 +35°C° 0 mm 5 mps 758 mmHg 50%
    14:00 +34°C° 0 mm 5 mps 758 mmHg 51%
    15:00 +34°C° 0 mm 5 mps 758 mmHg 52%
    16:00 +33°C° 0 mm 5 mps 757 mmHg 54%
    17:00 +32°C° 0 mm 4 mps 758 mmHg 60%
    18:00 +29°C° 0 mm 3 mps 758 mmHg 67%
    19:00 +28°C° 0 mm 3 mps 758 mmHg 73%
    20:00 +27°C° 0 mm 3 mps 759 mmHg 77%
    21:00 +27°C° 0 mm 3 mps 760 mmHg 81%
    22:00 +26°C° 0 mm 3 mps 760 mmHg 84%
    23:00 +26°C° 0 mm 2 mps 760 mmHg 86%

    26 January, Saturday

    Time Temperature Precipitation Wind Pressure Humidity
    00:00 +25°C° 0 mm 2 mps 759 mmHg 87%
    01:00 +25°C° 0 mm 1 mps 759 mmHg 88%
    02:00 +25°C° 0 mm 1 mps 759 mmHg 88%
    03:00 +25°C° 0 mm 1 mps 758 mmHg 88%
    04:00 +25°C° 0 mm 1 mps 758 mmHg 89%
    05:00 +25°C° 0 mm 1 mps 758 mmHg 84%
    06:00 +26°C° 0 mm 2 mps 759 mmHg 80%
    07:00 +27°C° 0 mm 2 mps 759 mmHg 76%
    08:00 +28°C° 0 mm 2 mps 759 mmHg 69%
    09:00 +30°C° 0 mm 3 mps 759 mmHg 62%
    10:00 +32°C° 0 mm 4 mps 759 mmHg 55%
    11:00 +33°C° 0 mm 4 mps 759 mmHg 52%
    12:00 +34°C° 0 mm 4 mps 758 mmHg 49%
    13:00 +35°C° 0 mm 5 mps 758 mmHg 46%
    14:00 +34°C° 0 mm 5 mps 757 mmHg 48%
    15:00 +33°C° 0 mm 5 mps 757 mmHg 51%
    16:00 +33°C° 0 mm 5 mps 757 mmHg 54%
    17:00 +30°C° 0 mm 4 mps 757 mmHg 61%
    18:00 +29°C° 0 mm 4 mps 757 mmHg 67%
    19:00 +27°C° 0 mm 4 mps 758 mmHg 74%
    20:00 +27°C° 0 mm 3 mps 758 mmHg 77%
    21:00 +26°C° 0 mm 3 mps 758 mmHg 80%
    22:00 +26°C° 0 mm 3 mps 759 mmHg 83%
    23:00 +25°C° 0 mm 3 mps 759 mmHg 83%

    27 January, Sunday

    Time Temperature Precipitation Wind Pressure Humidity
    00:00 +25°C° 0 mm 3 mps 758 mmHg 84%
    01:00 +25°C° 0 mm 2 mps 758 mmHg 85%
    02:00 +25°C° 0 mm 2 mps 758 mmHg 86%
    03:00 +25°C° 0 mm 2 mps 758 mmHg 86%
    04:00 +24°C° 0 mm 2 mps 757 mmHg 86%
    05:00 +25°C° 0 mm 2 mps 758 mmHg 82%
    06:00 +26°C° 0 mm 2 mps 758 mmHg 78%
    07:00 +27°C° 0 mm 2 mps 759 mmHg 74%
    08:00 +29°C° 0 mm 3 mps 759 mmHg 67%
    09:00 +30°C° 0 mm 3 mps 759 mmHg 59%
    10:00 +31°C° 0 mm 3 mps 759 mmHg 52%
    11:00 +33°C° 0 mm 4 mps 758 mmHg 49%
    12:00 +34°C° 0 mm 4 mps 758 mmHg 46%
    13:00 +35°C° 0 mm 5 mps 758 mmHg 43%
    14:00 +34°C° 0 mm 5 mps 757 mmHg 46%
    15:00 +34°C° 0 mm 5 mps 757 mmHg 48%
    16:00 +33°C° 0 mm 5 mps 757 mmHg 51%
    17:00 +30°C° 0 mm 5 mps 757 mmHg 57%
    18:00 +29°C° 0 mm 4 mps 758 mmHg 64%
    19:00 +27°C° 0 mm 4 mps 758 mmHg 71%
    20:00 +27°C° 0 mm 4 mps 759 mmHg 73%
    21:00 +26°C° 0 mm 3 mps 759 mmHg 76%
    22:00 +26°C° 0 mm 3 mps 760 mmHg 79%
    23:00 +25°C° 0 mm 3 mps 760 mmHg 82%

    28 January, Monday

    Time Temperature Precipitation Wind Pressure Humidity
    00:00 +25°C° 0 mm 2 mps 759 mmHg 84%
    01:00 +24°C° 0 mm 1 mps 759 mmHg 87%
    02:00 +24°C° 0.1 mm 1 mps 759 mmHg 88%
    03:00 +24°C° 0.1 mm 1 mps 759 mmHg 88%
    04:00 +24°C° 0.1 mm 1 mps 759 mmHg 89%
    05:00 +25°C° 0.1 mm 1 mps 759 mmHg 86%
    06:00 +26°C° 0.1 mm 1 mps 760 mmHg 82%
    07:00 +27°C° 0.1 mm 1 mps 760 mmHg 78%
    08:00 +28°C° 0.1 mm 1 mps 760 mmHg 71%
    09:00 +30°C° 0.1 mm 2 mps 760 mmHg 64%
    10:00 +33°C° 0.1 mm 3 mps 760 mmHg 57%
    11:00 +33°C° 0 mm 3 mps 760 mmHg 51%
    12:00 +34°C° 0 mm 4 mps 759 mmHg 45%
    13:00 +35°C° 0 mm 4 mps 759 mmHg 39%
    14:00 +35°C° 0 mm 4 mps 758 mmHg 42%
    15:00 +34°C° 0 mm 4 mps 758 mmHg 44%
    16:00 +34°C° 0 mm 4 mps 758 mmHg 47%
    17:00 +32°C° 0 mm 4 mps 759 mmHg 57%
    18:00 +29°C° 0 mm 4 mps 759 mmHg 67%
    19:00 +28°C° 0 mm 3 mps 760 mmHg 77%
    20:00 +27°C° 0 mm 3 mps 760 mmHg 80%
    21:00 +27°C° 0 mm 3 mps 761 mmHg 84%
    22:00 +26°C° 0 mm 3 mps 761 mmHg 88%
    23:00 +26°C° 0.1 mm 3 mps 761 mmHg 87%
    Show more